Location: �perlecques
(50.8057°N, 2.1521°E)
Time: 17:58:05
(UTC+00:00)

Cosmos 1980 Rocket - Pass Details

Date: 09 April 2020
Orbit: 829 x 850 km, 71.0° (Epoch: 25 May)

Event Time Altitude Azimuth Distance (km) Brightness Sun altitude
Rises 23:19:43 0° 320° (NW) 3,391 6.2 -30.7°
Reaches altitude 10° 23:22:44 10° 305° (NW) 2,455 5.1 -30.8°
Enters shadow 23:25:53 20° 272° (W) 1,863 4.0 -30.9°
